Printer-friendly version

IAU Minor Planet Center

Minor Planet Center

MPEC 2007-B15 : 2007 BD

The following Minor Planet Electronic Circular may be linked-to from your own Web pages, but must not otherwise be redistributed electronically.


Read MPEC 2007-B14 Read MPEC 2007-B16


M.P.E.C. 2007-B15                                Issued 2007 Jan. 17, 18:49 UT

     The Minor Planet Electronic Circulars contain information on unusual
         minor planets and routine data on comets.  They are published
   on behalf of Commission 20 of the International Astronomical Union by the
          Minor Planet Center, Smithsonian Astrophysical Observatory,
                          Cambridge, MA 02138, U.S.A.

             Prepared using the Tamkin Foundation Computer Network

                              MPC@CFA.HARVARD.EDU
          URL http://cfa-www.harvard.edu/iau/mpc.html  ISSN 1523-6714

                                    2007 BD

Observations:
     K07B00D* C2007 01 16.43733 13 26 48.66 +27 23 19.1          17.7 V EB015703
     K07B00D  C2007 01 16.44390 13 26 31.63 +27 25 18.9          17.7 V EB015703
     K07B00D  C2007 01 16.45064 13 26 13.84 +27 27 21.8          18.5 V EB015703
     K07B00D  C2007 01 16.45757 13 25 55.52 +27 29 28.4          17.6 V EB015703
     K07B00D  C2007 01 16.49392 13 24 15.08 +27 40 31.6          17.6 V EB015703
     K07B00D  C2007 01 16.49430 13 24 13.96 +27 40 39.0          17.6 V EB015703
     K07B00D  C2007 01 16.49466 13 24 12.99 +27 40 45.0          17.4 V EB015703
     K07B00D  C2007 01 16.49502 13 24 11.95 +27 40 51.6          17.4 V EB015703
     K07B00D  C2007 01 16.55726 13 21 06.26 +27 59 45.2          17.5 V EB015703
     K07B00D  C2007 01 16.55761 13 21 05.22 +27 59 51.7          17.2 V EB015703
     K07B00D  C2007 01 16.55797 13 21 04.06 +27 59 58.6          17.4 V EB015703
     K07B00D  C2007 01 16.55833 13 21 03.02 +28 00 05.0          17.3 V EB015703
     K07B00D  C2007 01 17.09446 12 46 53.38 +31 32 43.8          16.1 R EB015A50
     K07B00D  C2007 01 17.09533 12 46 48.31 +31 33 12.3          16.1 R EB015A50
     K07B00D  C2007 01 17.09621 12 46 42.43 +31 33 42.4          16.2 R EB015A50
     K07B00D  C2007 01 17.09734 12 46 35.17 +31 34 20.8          16.2 R EB015A50
     K07B00D  C2007 01 17.27655 12 28 06.99 +33 17 56.3          15.2 R EB015854
     K07B00D  C2007 01 17.27793 12 27 55.72 +33 18 58.8          15.7 R EB015854
     K07B00D  C2007 01 17.27849 12 27 51.23 +33 19 24.2          15.5 R EB015854
     K07B00D  C2007 01 17.28072 12 27 32.92 +33 21 06.0          15.6 R EB015854
     K07B00D  C2007 01 17.28100 12 27 30.65 +33 21 18.5          15.7 R EB015854
     K07B00D  C2007 01 17.28123 12 27 28.38 +33 21 31.3          16.2 R EB015854
     K07B00D  C2007 01 17.38674 12 10 41.37 +34 44 03.5          16.6 V EB015703
     K07B00D  C2007 01 17.38699 12 10 38.74 +34 44 14.7          16.5 V EB015703
     K07B00D  C2007 01 17.38722 12 10 36.12 +34 44 26.0          16.1 V EB015703
     K07B00D  C2007 01 17.38748 12 10 33.31 +34 44 38.3          16.0 V EB015703
     K07B00D  C2007 01 17.43669 12 00 13.78 +35 19 49.9          16.8 R EB015734
     K07B00D  C2007 01 17.43971 11 59 36.02 +35 22 04.2          15.9 R EB015734
     K07B00D  C2007 01 17.44439 11 58 36.95 +35 25 31.5          16.0 R EB015734
     K07B00D  C2007 01 17.44811 11 57 49.65 +35 28 16.2          15.6 R EB015734

Observer details:
703 Catalina Sky Survey.  Observer E. J. Christensen.  Measurers E. C. Beshore,
    E. J. Christensen, G. J. Garradd, A. R. Gibbs, A. D. Grauer, R. E. Hill,
    R. A. Kowalski, S. M. Larson, R. H. McNaught.  0.68-m Schmidt + CCD.
734 Farpoint Observatory.  Observer G. Hug.  Measurer D. Tibbets.  0.7-m
    reflector + CCD.
854 Sabino Canyon Observatory, Tucson.  Observer J. E. McGaha.  0.36-m f/10.0
    Schmidt-Cassegrain + CCD.
A50 Andrushivka Astronomical Observatory.  Observer O. Gerashchenko.  0.6-m
    reflector + CCD.

Orbital elements:
2007 BD                                                  Earth MOID = 0.0026 AU
Epoch 2007 Apr. 10.0 TT = JDT 2454200.5                 MPC
M 309.96481              (2000.0)            P               Q
n   1.56958006     Peri.  359.14872     +0.45014560     +0.88146613
a   0.7332978      Node   297.59327     -0.81831531     +0.34321504
e   0.3446459      Incl.    9.27106     -0.35739193     +0.32437772
P   0.63           H   26.0           G   0.15           U   7
Residuals in seconds of arc
070116 703  0.5+  0.4-    070116 703  0.8-  0.2+    070117 854  0.1+  0.5+
070116 703  0.5+  0.1-    070116 703  0.2+  0.0     070117 854 (4.7-  2.9+)
070116 703  0.8-  0.0     070117 A50  0.5-  0.4-    070117 703  1.1-  0.4+
070116 703  0.6+  0.4+    070117 A50 (5.1+  0.9-)   070117 703  0.2+  0.4-
070116 703  0.1+  0.1-    070117 A50  1.4+  0.0     070117 703  0.9-  0.1-
070116 703  0.4-  0.4+    070117 A50  0.4+  0.8+    070117 703  0.3-  0.1-
070116 703  0.3+  0.2-    070117 854  0.6+  0.2-    070117 734  0.2+  0.7-
070116 703  0.2+  0.2-    070117 854  0.2-  0.1-    070117 734  0.3+  0.5-
070116 703  0.9-  0.4-    070117 854  0.7+  0.1-    070117 734  0.1-  0.3-
070116 703  0.3-  0.2-    070117 854  0.3-  0.7+    070117 734  0.7+  0.4+

Ephemeris:
2007 BD                  a,e,i = 0.73, 0.34, 9                   Q = 0.9860
Date    TT    R. A. (2000) Decl.     Delta      r     Elong.  Phase     V
2007 01 10    14 15.45   +20 33.9    0.0349   0.982    86.4    91.6    21.9
2007 01 11    14 13.65   +20 50.4    0.0307   0.983    87.7    90.5    21.6
2007 01 12    14 11.28   +21 12.2    0.0264   0.983    89.2    89.2    21.2
2007 01 13    14 07.98   +21 42.3    0.0222   0.984    91.0    87.7    20.8
2007 01 14    14 03.06   +22 26.5    0.0179   0.985    93.2    85.8    20.2
2007 01 15    13 54.93   +23 37.4    0.0136   0.985    96.2    83.0    19.5
2007 01 16    13 39.00   +25 48.2    0.00942  0.986   101.2    78.3    18.6
2007 01 17    12 54.98   +30 53.2    0.00531  0.986   112.7    67.0    17.0

2007 01 17.2  12 35.50   +32 42.4    0.00454  0.986   117.2    62.5    16.5
2007 01 17.4  12 06.93   +34 55.2    0.00380  0.986   123.5    56.3    15.9
2007 01 17.6  11 22.91   +37 20.4    0.00313  0.986   132.5    47.3    15.2
2007 01 17.8  10 13.76   +38 55.2    0.00257  0.986   145.5    34.4    14.4
2007 01 18.0  08 36.02   +36 44.2    0.00223  0.986   161.9    18.0    13.6
2007 01 18.2  06 54.38   +28 26.0    0.00219  0.986   163.4    16.5    13.6
2007 01 18.4  05 38.87   +17 39.5    0.00248  0.986   146.7    33.2    14.3
2007 01 18.6  04 50.34   +08 49.2    0.00301  0.986   132.7    47.1    15.1
2007 01 18.8  04 19.06   +02 37.4    0.00366  0.986   123.0    56.8    15.8

2007 01 19    03 57.91   -01 38.7    0.00439  0.986   116.3    63.5    16.4
2007 01 20    03 10.94   -10 53.9    0.00842  0.986   101.0    78.5    18.3
2007 01 21    02 54.27   -13 59.5    0.0126   0.985    95.1    84.1    19.4
2007 01 22    02 45.85   -15 30.2    0.0169   0.985    91.8    87.2    20.2
2007 01 23    02 40.78   -16 23.8    0.0211   0.984    89.5    89.3    20.7
2007 01 24    02 37.40   -16 59.2    0.0254   0.984    87.6    90.9    21.2
2007 01 25    02 34.98   -17 24.4    0.0297   0.983    86.1    92.2    21.6
2007 01 26    02 33.15   -17 43.3    0.0339   0.982    84.7    93.3    21.9
2007 01 27    02 31.72   -17 58.2    0.0381   0.981    83.4    94.4    22.2
2007 01 28    02 30.54   -18 10.2    0.0424   0.980    82.2    95.3    22.5
2007 01 29    02 29.56   -18 20.2    0.0466   0.979    81.1    96.2    22.7
2007 01 30    02 28.70   -18 28.7    0.0508   0.977    80.0    97.1    23.0

Kyle E. Smalley              (C) Copyright 2007 MPC           M.P.E.C. 2007-B15

Read MPEC 2007-B14 Read MPEC 2007-B16


Our Web policy. Index to the CBAT/MPC/ICQ pages.


Valid HTML 4.01!